BEIDOU 3

Last updated on Sun Feb 19 2023 00:02:45 GMT+0000 (Coordinated Universal Time)

1 36287U 10001A 23048.87827058 -.00000288 00000+0 00000+0 0 9997 2 36287 1.9482 53.0568 0002860 282.5938 268.5218 1.00269457 47975
UTC large
Height (km)
Speed (km/s)
/
Latitude / Longitude
Inclination (degrees)
Orbital Period (minutes)
Azimuth
Elevation
Range (km)
Doppler Factor

Next 0 passes for location: London (51.5072 / 0.1276)

Sorry there are no passes over London.
BEIDOU 3